Weather History for Bismarck, ND

Change the Weather History Date:

Monday, February 18, 2013

  Actual Average Record
Temperature  
Mean Temperature 16 °F 19 °F  
Max Temperature 32 °F 29 °F 62 °F (1954)
Min Temperature 0 °F 9 °F -37 °F (1910)
Degree Days  
Heating Degree Days 49 46  
Month to date heating degree days 750 874  
Since 1 July heating degree days 5856 5992  
Cooling Degree Days 0 0  
Month to date cooling degree days 0 0  
Year to date cooling degree days 0 0  
Moisture  
Dew Point 9 °F    
Average Humidity 78    
Maximum Humidity 88    
Minimum Humidity 67    
Precipitation  
Precipitation 0.02 in 0.02 in 0.36 in (1952)
Month to date precipitation 0.19 0.28  
Year to date precipitation 0.44 0.71  
Snow  
Snow 0.40 in 0.30 in 5.40 in (1949)
Month to date snowfall 2.4 4.8  
Since 1 July snowfall 27.5 34.2  
Snow Depth 1.00 in    
Sea Level Pressure  
Sea Level Pressure 29.97 in    
Wind  
Wind Speed 19 mph (NNW)    
Max Wind Speed 30 mph    
Max Gust Speed 38 mph    
Visibility 5 miles    
Events Snow    
T = Trace of Precipitation, MM = Missing Value Source: NWS Daily Summary

Daily Weather History Graph

Daily Weather History Graph

Search for Another Location

Airport:

Trip Planner

Search our weather history database for the weather conditions in past years. The results will help you decide how hot, cold, wet, or windy it might be!

Date:

Astronomy

Feb. 18, 2013 Rise Set
Actual Time 7:41 AM CST 6:12 PM CST
Civil Twilight 7:10 AM CST 6:43 PM CST
Nautical Twilight 6:35 AM CST 7:19 PM CST
Astronomical Twilight 6:00 AM CST 7:54 PM CST
Moon 11:49 AM CST (2/18) 2:33 AM CST (2/18)
Length of Visible Light 11h 33m
Length of Day
10h 31m
First Quarter, 58% of the Moon is Illuminated
Feb 18
First Quarter
Feb 25
Full
Mar 4
Last Quarter
Mar 11
New
Mar 19
First Quarter

Hourly Weather History & Observations

Time (CST) Temp. Windchill Dew Point Humidity Pressure Visibility Wind Dir Wind Speed Gust Speed Precip Events Conditions
12:06 AM 30.9 °F 17.8 °F 27.0 °F 85% 29.59 in 2.5 mi NNW 23.0 mph 32.2 mph 0.00 in Snow Light Snow
12:15 AM 30.9 °F 19.4 °F 27.0 °F 85% 29.60 in 1.8 mi NW 17.3 mph - 0.00 in Snow Light Snow
12:25 AM 30.0 °F 17.9 °F 26.1 °F 85% 29.61 in 1.5 mi NNW 18.4 mph 33.4 mph 0.00 in Snow Light Snow
12:52 AM 27.0 °F 12.8 °F 23.0 °F 85% 29.70 in 1.5 mi NNW 21.9 mph 29.9 mph 0.00 in Snow Light Snow
1:16 AM 25.0 °F 11.7 °F 21.0 °F 85% 29.67 in 2.0 mi NNW 17.3 mph 28.8 mph 0.01 in Snow Light Snow
1:26 AM 25.0 °F 10.2 °F 21.0 °F 85% 29.68 in 2.5 mi NW 21.9 mph 31.1 mph 0.01 in Snow Light Snow
1:34 AM 24.1 °F 9.8 °F 19.9 °F 84% 29.69 in 3.0 mi NNW 19.6 mph 29.9 mph 0.01 in Snow Light Snow
1:42 AM 24.1 °F 10.6 °F 19.0 °F 81% 29.69 in 2.5 mi NNW 17.3 mph 31.1 mph 0.01 in Snow Light Snow
1:52 AM 23.0 °F 9.2 °F 19.0 °F 85% 29.75 in 2.0 mi NNW 17.3 mph 27.6 mph 0.01 in Snow Light Snow
2:22 AM 21.9 °F 8.2 °F 17.1 °F 82% 29.72 in 2.0 mi NNW 16.1 mph 28.8 mph 0.01 in Snow Light Snow
2:33 AM 21.9 °F 6.5 °F 17.1 °F 82% 29.73 in 3.0 mi NNW 20.7 mph 27.6 mph 0.01 in Snow Light Snow
2:40 AM 21.0 °F 3.9 °F 16.0 °F 81% 29.74 in 2.5 mi NW 25.3 mph 31.1 mph 0.01 in Snow Light Snow
2:45 AM 19.9 °F 3.2 °F 15.1 °F 81% 29.75 in 4.0 mi NNW 23.0 mph 31.1 mph 0.01 in Snow Light Snow
2:52 AM 19.9 °F 3.9 °F 15.1 °F 81% 29.81 in 5.0 mi NNW 20.7 mph 33.4 mph 0.01 in Snow Light Snow
3:52 AM 19.4 °F 2.5 °F 14.0 °F 80% 29.78 in 3.0 mi NNW 23.0 mph 31.1 mph N/A Snow Light Snow
4:52 AM 18.0 °F 3.1 °F 12.9 °F 81% 29.88 in 4.0 mi NNW 16.1 mph 26.5 mph 0.00 in Snow Light Snow
5:02 AM 18.0 °F 1.7 °F 12.9 °F 81% 29.82 in 1.8 mi NNW 19.6 mph 26.5 mph 0.00 in Snow Light Snow
5:10 AM 17.6 °F 0.5 °F 12.2 °F 79% 29.82 in 3.0 mi NNW 21.9 mph 32.2 mph N/A Snow Light Snow
5:52 AM 17.1 °F 1.5 °F 10.9 °F 77% 29.91 in 10.0 mi NNW 17.3 mph 31.1 mph 0.00 in Snow Light Snow
6:45 AM 15.1 °F -3.7 °F 9.0 °F 77% 29.88 in 10.0 mi NNW 24.2 mph 31.1 mph 0.00 in   Overcast
6:52 AM 15.1 °F -1.1 °F 8.1 °F 74% 29.96 in 10.0 mi North 17.3 mph 29.9 mph 0.00 in   Overcast
7:06 AM 15.1 °F -0.1 °F 10.0 °F 80% 29.88 in 5.0 mi NNW 15.0 mph 25.3 mph 0.00 in Snow Light Snow
7:16 AM 16.0 °F 2.9 °F 10.9 °F 81% 29.89 in 1.5 mi NNW 11.5 mph 23.0 mph 0.00 in Snow Light Snow
7:26 AM 16.0 °F -2.1 °F 10.0 °F 77% 29.89 in 3.0 mi NNW 23.0 mph 32.2 mph 0.00 in Snow Light Snow
7:45 AM 15.1 °F -4.0 °F 9.0 °F 77% 29.90 in 1.5 mi NNW 25.3 mph 38.0 mph 0.00 in Snow Light Snow
7:48 AM 15.8 °F -2.7 °F 8.6 °F 73% 29.90 in 3.0 mi NNW 24.2 mph 38.0 mph 0.00 in Snow Light Snow
7:52 AM 15.8 °F -1.9 °F 8.6 °F 73% 29.90 in 5.0 mi NNW 21.9 mph 36.8 mph N/A Snow Light Snow
8:10 AM 15.1 °F -3.3 °F 9.0 °F 77% 29.92 in 2.0 mi NNW 23.0 mph 31.1 mph 0.00 in Snow Light Snow
8:22 AM 15.1 °F -1.1 °F 9.0 °F 77% 29.93 in 6.0 mi NNW 17.3 mph 29.9 mph 0.00 in Snow Light Snow
8:37 AM 15.1 °F -2.5 °F 9.0 °F 77% 29.94 in 2.5 mi NNW 20.7 mph 28.8 mph 0.00 in Snow Light Snow
8:50 AM 15.8 °F 0.3 °F 8.6 °F 73% 29.95 in 4.0 mi NNW 16.1 mph 25.3 mph 0.00 in Snow Light Snow
8:52 AM 15.1 °F -1.6 °F 9.0 °F 77% 30.02 in 3.0 mi NNW 18.4 mph 25.3 mph 0.00 in Snow Light Snow
9:12 AM 15.1 °F -2.0 °F 8.1 °F 74% 29.96 in 1.8 mi NNW 19.6 mph - 0.00 in Snow Light Snow
9:20 AM 15.1 °F -2.9 °F 8.1 °F 74% 29.97 in 3.0 mi NNW 21.9 mph 28.8 mph 0.00 in Snow Light Snow
9:29 AM 14.0 °F -3.9 °F 8.1 °F 77% 29.97 in 1.8 mi NNW 20.7 mph 31.1 mph 0.00 in Snow Light Snow
9:39 AM 15.1 °F -1.6 °F 8.1 °F 74% 29.97 in 3.0 mi NNW 18.4 mph 25.3 mph 0.00 in Snow Light Snow
9:52 AM 15.1 °F -0.6 °F 9.0 °F 77% 30.06 in 4.0 mi NNW 16.1 mph 24.2 mph 0.00 in Snow Light Snow
10:07 AM 15.1 °F -0.6 °F 8.1 °F 74% 29.98 in 5.0 mi North 16.1 mph 24.2 mph 0.00 in Snow Light Snow
10:12 AM 15.1 °F -1.6 °F 9.0 °F 77% 29.98 in 2.5 mi NNW 18.4 mph 26.5 mph 0.00 in Snow Light Snow
10:35 AM 15.1 °F -2.5 °F 7.0 °F 70% 29.99 in 3.0 mi North 20.7 mph 31.1 mph 0.00 in Snow Light Snow
10:44 AM 15.1 °F -2.9 °F 7.0 °F 70% 29.99 in 2.0 mi NNW 21.9 mph 31.1 mph 0.00 in Snow Light Snow
10:52 AM 15.1 °F -1.1 °F 8.1 °F 74% 30.07 in 1.8 mi NNW 17.3 mph 28.8 mph 0.00 in Snow Light Snow
11:06 AM 15.1 °F -2.0 °F 8.1 °F 74% 30.00 in 3.0 mi NNW 19.6 mph 28.8 mph 0.00 in Snow Light Snow
11:13 AM 16.0 °F -1.3 °F 9.0 °F 74% 30.00 in 2.5 mi NNW 20.7 mph 26.5 mph 0.00 in Snow Light Snow
11:52 AM 15.1 °F -3.3 °F 7.0 °F 70% 30.09 in 2.5 mi NNW 23.0 mph 31.1 mph 0.00 in Snow Light Snow
12:01 PM 16.0 °F 0.1 °F 7.0 °F 68% 30.02 in 6.0 mi NNW 17.3 mph 28.8 mph 0.00 in Snow Light Snow
12:34 PM 15.1 °F -3.7 °F 7.0 °F 70% 30.02 in 9.0 mi NNW 24.2 mph 32.2 mph 0.00 in   Overcast
12:52 PM 15.1 °F -4.4 °F 7.0 °F 70% 30.11 in 10.0 mi NNW 26.5 mph 32.2 mph 0.00 in   Overcast
1:25 PM 16.0 °F -2.5 °F 7.0 °F 68% 30.03 in 10.0 mi NNW 24.2 mph 33.4 mph N/A   Overcast
1:52 PM 15.1 °F -3.3 °F 7.0 °F 70% 30.12 in 8.0 mi NW 23.0 mph 31.1 mph 0.00 in   Overcast
2:52 PM 12.9 °F -5.3 °F 5.0 °F 71% 30.15 in 10.0 mi NNW 20.7 mph 29.9 mph N/A   Overcast
3:52 PM 12.9 °F -6.9 °F 3.9 °F 67% 30.18 in 10.0 mi NNW 25.3 mph 31.1 mph N/A   Overcast
4:52 PM 10.9 °F -8.3 °F 3.0 °F 70% 30.20 in 9.0 mi NNW 21.9 mph 28.8 mph N/A   Overcast
5:52 PM 8.1 °F -10.7 °F 3.0 °F 80% 30.25 in 4.0 mi North 18.4 mph 26.5 mph 0.00 in Snow Light Snow
6:30 PM 7.0 °F -10.4 °F -0.0 °F 73% 30.16 in 4.0 mi North 15.0 mph 25.3 mph 0.00 in   Haze
6:52 PM 6.8 °F -11.3 °F -0.4 °F 72% 30.17 in 4.0 mi NNW 16.1 mph 25.3 mph N/A   Haze
7:45 PM 5.0 °F -12.3 °F -2.0 °F 73% 30.19 in 10.0 mi North 13.8 mph 21.9 mph N/A   Scattered Clouds
7:52 PM 5.0 °F -10.8 °F -2.9 °F 70% 30.31 in 10.0 mi North 11.5 mph 20.7 mph N/A   Mostly Cloudy
8:36 PM 3.9 °F -16.1 °F -2.9 °F 73% 30.19 in 10.0 mi North 18.4 mph 24.2 mph N/A   Scattered Clouds
8:52 PM 3.9 °F -13.0 °F -2.9 °F 73% 30.32 in 10.0 mi North 12.7 mph 27.6 mph N/A   Partly Cloudy
9:52 PM 3.0 °F -16.7 °F -4.0 °F 73% 30.33 in 10.0 mi NNW 17.3 mph 23.0 mph N/A   Clear
10:52 PM 1.9 °F -16.9 °F -6.0 °F 69% 30.35 in 10.0 mi NNW 15.0 mph - N/A   Clear
11:52 PM -0.0 °F -18.0 °F -8.0 °F 69% 30.37 in 10.0 mi North 12.7 mph - N/A   Clear